DELTA 1 DEB, 10707

Orbit data source: Space-Track

DELTA 1 DEB, 10707 is space debris in LEO originally from a launch on Thu, 29 Jul 1976 UTC launched from the Air Force Western Test Range (AFWTR). Debris objects in space refer to the collection of defunct objects orbiting the Earth. Examples of debris include non-operational satellites, rocket bodies, and fragments generated from explosions, collisions, or faulty payload assembly.

Loading next visibility...
Identifier
10707, 1976-077AC
Orbit
LEO
Country
Flag of USUS
Related business
Manufacturer
Unknown
Mission
Spacecraft
Bus & Motor
Unknown
Mass
Unknown
Launch date (UTC)
1976-07-29 (50 years ago)
Launch vehicle
Unknown
Launch site
Air Force Western Test Range (AFWTR)
Object type
Payload
Rocket body
Debris
Shape & HBR
Unknown shape, 0.1 m
Radar Cross Section
Small (<0.1 m²)

Expand to show TLE details & history
Last TLE update: 7 hours ago

TLE from 7 hours ago
0 DELTA 1 DEB
1 10707U 76077AC  26037.93594951 -.00000036  00000-0  45065-4 0  9999
2 10707 102.2001  57.8379 0268358 165.9291 263.9813 11.98409251136751
Epoch: 2026-02-06T22:27Z
TLE epoch observation values (Epoch: 2026-02-06T22:27:46.037Z)
Latitude
64.08597°
Longitude
-82.45763°
Altitude
1,727.248 km
Speed
7.007 km/s
True Right ascension
02h 06m 12s
True Declination
63° 58' 00"
Sunlit
Object was in daylight at epoch
Visualization orbit readout
Latitude
Unknown
Longitude
Unknown
Altitude
Unknown
Speed
Unknown
Apparent Right ascension
Unknown
Apparent Declination
Unknown
Sunlit
N/A
Visualization observer readout
Local Sidereal Time
07:52:12
Azimuth
Unknown
Elevation
Unknown
Doppler factor
Unknown
Orbital elements
Apogee altitude
1,902.027 km
Perigee altitude
1,469.231 km
Semi-major axis
8,063.766 km
Eccentricity
0.02684
Inclination
102.2001°
RAAN
57.8379°
Arg. of periapsis
165.9291°
True anomaly
260.93525°
Mean anomaly
263.9813°
Eccentric anomaly
262.45703°
Mean motion
2.99734 °/min
Orbital period
120.11 mins
BSTAR
0.000045065
Loading maneuver chart data...
Computing Atmospheric mass density...
Loading historical data...
Loading historical data...
Loading historical data...
Loading historical data...
Loading historical data...
Loading historical data...
Loading historical data...

Documentation

Showing up to 5 results
|